Location: Barrio Las Umbrías
(40.4173°N, 4.8685°W)
Time: 13:31:59
(UTC+00:00)

CENTAUR R/B - Pass Details

Date: 17 August 2022
Orbit: 710 x 1477 km, 63.4° (Epoch: 22 August)

Event Time Altitude Azimuth Distance (km) Brightness Sun altitude
Rises 23:28:17 0° 326° (NW) 4,212 6.7 -34.9°
Reaches altitude 10° 23:30:58 10° 328° (NNW) 3,331 6.0 -35.0°
Maximum altitude 23:39:20 75° 54° (NE) 1,474 3.2 -35.4°
Enters shadow 23:39:36 75° 70° (ENE) 1,479 3.2 -35.5°
